This demonstration page uses our WeatherBlox Daily Observations layout. Learn more.

Left ArrowRight Arrow

39.51506, -84.39828

Hourly Observations for August 8, 2020

Temp ( °F °C ) Dew Point ( °F °C ) Humidity (%) Winds ( mph kmh ) Pressure ( in mb ) Visibility ( mi km ) Precip ( " mm )
12:15 am 00:15 Clear 62 16.8 60 15.8 94 94 N 3 6 30.17 1022 10 16.0934 0 0
12:35 am 00:35 Clear 62 16.7 60 15.6 93 93 NNE 3 6 30.17 1022 10 16.0934 0 0
12:55 am 00:55 Clear 63 17.4 61 16 92 92 NE 3 6 30.17 1022 10 16.0934 0 0
1:15 am 01:15 Clear 64 17.7 62 16.7 94 94 Calm 30.17 1022 10 16.0934 0 0
1:35 am 01:35 Clear with Mist and Fog 61 16 60 15.6 97 97 Calm 30.17 1022 7 11.26538 0 0
1:55 am 01:55 Clear 61 16 60 15.3 96 96 Calm 30.17 1022 10 16.0934 0 0
2:15 am 02:15 Clear 61 15.9 60 15.3 96 96 Calm 30.17 1022 10 16.0934 0 0
2:35 am 02:35 Clear with Mist and Fog 61 16.3 59 15.2 93 93 Calm 30.17 1022 4 6.43736 0 0
2:55 am 02:55 Clear 61 16.1 60 15.6 97 97 Calm 30.17 1022 10 16.0934 0 0
3:15 am 03:15 Clear 61 15.9 60 15.4 97 97 Calm 30.17 1022 10 16.0934 0 0
3:35 am 03:35 Clear 60 15.4 59 15.1 98 98 Calm 30.19 1022 10 16.0934 0 0
3:55 am 03:55 Clear 61 16 60 15.4 96 96 Calm 30.18 1022 10 16.0934 0 0
4:15 am 04:15 Clear 60 15.8 60 15.3 97 97 Calm 30.18 1022 10 16.0934 0 0
4:35 am 04:35 Clear 59 15.1 59 14.8 98 98 Calm 30.19 1022 10 16.0934 0 0
4:55 am 04:55 Clear 58 14.6 58 14.4 99 99 Calm 30.19 1022 10 16.0934 0 0
5:15 am 05:15 Clear 59 14.8 58 14.5 98 98 Calm 30.18 1022 10 16.0934 0 0
5:35 am 05:35 Clear 58 14.5 58 14.3 99 99 Calm 30.18 1022 10 16.0934 0 0
5:55 am 05:55 Clear 58 14.7 58 14.6 99 99 Calm 30.19 1022 10 16.0934 0 0
6:15 am 06:15 Clear 58 14.4 58 14.2 99 99 Calm 30.19 1022 10 16.0934 0 0
6:35 am 06:35 Clear 58 14.3 58 14.3 100 100 Calm 30.2 1023 7 11.26538 0 0
6:55 am 06:55 Sunny with Mist and Fog 57 14 57 14 100 100 Calm 30.2 1023 5 8.0467 0 0
7:15 am 07:15 Hazy 57 14 N/A N/A Calm 30.2 1023 5 8.0467 0 0
7:35 am 07:35 Hazy 59 15 N/A N/A Calm 30.2 1023 7 11.26538 0 0
7:55 am 07:55 Sunny 60 15.5 60 15.4 99 99 Calm 30.2 1023 7 11.26538 0 0
8:15 am 08:15 Sunny 62 16.7 61 16.3 98 98 Calm 30.19 1022 10 16.0934 0 0
8:35 am 08:35 Sunny 63 17.3 61 16.3 94 94 Calm 30.19 1022 10 16.0934 0 0
8:55 am 08:55 Sunny 65 18.2 62 16.8 92 92 Calm 30.2 1023 10 16.0934 0 0
9:15 am 09:15 Sunny 67 19.3 62 16.4 83 83 Calm 30.2 1023 10 16.0934 0 0
9:35 am 09:35 Sunny 69 20.4 62 16.4 78 78 Calm 30.2 1023 10 16.0934 0 0
9:55 am 09:55 Sunny 71 21.8 62 16.7 73 73 Calm 30.2 1023 10 16.0934 0 0
10:15 am 10:15 Sunny 72 22.4 61 16.3 69 69 Calm 30.2 1023 10 16.0934 0 0
10:35 am 10:35 Sunny 74 23.1 62 16.5 67 67 Calm 30.2 1023 10 16.0934 0 0
10:55 am 10:55 Sunny 76 24.5 62 16.8 62 62 Calm 30.19 1022 10 16.0934 0 0
11:15 am 11:15 Sunny 77 25 62 16.6 60 60 Calm 30.19 1022 10 16.0934 0 0
11:35 am 11:35 Sunny 78 25.7 60 15.7 54 54 Calm 30.19 1022 10 16.0934 0 0
11:55 am 11:55 Sunny 79 26.1 58 14.3 48 48 Calm 30.19 1022 10 16.0934 0 0
12:15 pm 12:15 Sunny 79 26.1 60 15.4 52 52 Calm 30.18 1022 10 16.0934 0 0
12:35 pm 12:35 Sunny 80 26.5 59 15 49 49 ESE 5 7 30.18 1022 10 16.0934 0 0
12:55 pm 12:55 Sunny 80 26.5 60 15.8 52 52 WNW 3 6 30.18 1022 10 16.0934 0 0
1:15 pm 13:15 Partly Cloudy 79 26.3 61 15.9 53 53 NW 3 6 30.18 1022 7 11.26538 0 0
1:35 pm 13:35 Partly Cloudy 81 27 60 15.8 50 50 Calm 30.17 1022 10 16.0934 0 0
1:55 pm 13:55 Sunny 81 27.4 61 16 50 50 E 6 9 30.16 1021 10 16.0934 0 0
2:15 pm 14:15 Sunny 81 27 59 14.9 48 48 Calm 30.16 1021 10 16.0934 0 0
2:35 pm 14:35 Sunny 81 27.2 60 15.7 49 49 Calm 30.16 1021 10 16.0934 0 0
2:55 pm 14:55 Sunny 82 27.8 62 16.5 50 50 WSW 5 7 30.15 1021 10 16.0934 0 0
3:15 pm 15:15 Sunny 83 28.1 61 16.2 48 48 Calm 30.14 1021 10 16.0934 0 0
3:35 pm 15:35 Sunny 82 27.9 60 15.6 47 47 Calm 30.13 1020 10 16.0934 0 0
3:55 pm 15:55 Sunny 82 27.9 60 15.6 47 47 NW 3 6 30.13 1020 10 16.0934 0 0
4:15 pm 16:15 Sunny 83 28.4 62 16.6 49 49 W 7 11 30.13 1020 10 16.0934 0 0
4:35 pm 16:35 Sunny 83 28.3 60 15.7 46 46 SW 8 13 30.13 1020 10 16.0934 0 0
4:55 pm 16:55 Sunny 83 28.4 59 14.8 43 43 SW 6 9 30.13 1020 10 16.0934 0 0
5:15 pm 17:15 Sunny 83 28.4 58 14.3 42 42 Calm 30.13 1020 10 16.0934 0 0
5:35 pm 17:35 Sunny 83 28.5 59 15.2 44 44 Calm 30.12 1020 10 16.0934 0 0
5:55 pm 17:55 Sunny 83 28.5 59 14.9 44 44 WSW 5 7 30.12 1020 10 16.0934 0 0
6:15 pm 18:15 Sunny 83 28.2 59 14.9 44 44 Calm 30.12 1020 10 16.0934 0 0
6:35 pm 18:35 Sunny 83 28.2 59 14.9 44 44 Calm 30.12 1020 10 16.0934 0 0
6:55 pm 18:55 Sunny 82 27.7 62 16.9 52 52 NNW 3 6 30.12 1020 10 16.0934 0 0
7:15 pm 19:15 Sunny 81 27.2 64 17.6 56 56 NNW 5 7 30.12 1020 10 16.0934 0 0
7:35 pm 19:35 Sunny 80 26.5 64 17.9 59 59 NNW 5 7 30.13 1020 10 16.0934 0 0
7:55 pm 19:55 Sunny 78 25.8 65 18.3 63 63 NNW 3 6 30.13 1020 10 16.0934 0 0
8:15 pm 20:15 Sunny 77 25 64 18 65 65 Calm 30.13 1020 10 16.0934 0 0
8:35 pm 20:35 Sunny 75 23.8 67 19.2 76 76 Calm 30.13 1020 10 16.0934 0 0
8:55 pm 20:55 Clear 72 22.1 67 19.4 85 85 Calm 30.14 1021 10 16.0934 0 0
9:15 pm 21:15 Clear 72 22.1 66 19 83 83 Calm 30.14 1021 7 11.26538 0 0
9:35 pm 21:35 Clear 69 20.3 66 18.7 91 91 Calm 30.14 1021 10 16.0934 0 0
9:55 pm 21:55 Clear with Mist and Fog 68 19.8 65 18.5 92 92 Calm 30.15 1021 7 11.26538 0 0
10:15 pm 22:15 Clear 67 19.5 65 18.6 95 95 Calm 30.16 1021 10 16.0934 0 0
10:35 pm 22:35 Clear 66 18.8 64 18 95 95 Calm 30.16 1021 10 16.0934 0 0
10:55 pm 22:55 Clear 66 18.8 64 18 95 95 Calm 30.16 1021 10 16.0934 0 0
11:15 pm 23:15 Clear 65 18.3 64 17.5 95 95 Calm 30.16 1021 10 16.0934 0 0
11:35 pm 23:35 Clear 64 17.9 64 17.5 98 98 Calm 30.16 1021 10 16.0934 0 0
11:55 pm 23:55 Clear 65 18.2 64 17.7 97 97 Calm 30.16 1021 10 16.0934 0 0

Powered by AerisWeather